Theta_e
291 291 292 292 293 294 295 296 297 297 297 298 300 302 303 303 304 304 305 307 307 307 307 306 305 305 305 304 303 303 303 300 300 300 298 296 295 296 296 296 295 294 293 293 291 292 292 292 291 291 291 291 290 289 288 287 287 287 287 286 287 286
291 291 292 293 293 292 292 295 297 297 296 297 297 298 299 301 303 303 304 303 305 303 303 303 304 304 304 303 303 303 302 299 299 297 296 296 295 295 294 293 292 291 290 289 290 289 289 289 288 289 288 288 287 286 287 285 286 286 286 285 284 285
291 290 291 291 291 291 292 295 298 298 297 298 299 303 303 304 303 303 302 302 302 302 302 302 302 302 303 303 303 301 299 298 297 297 295 292 292 291 291 291 291 290 290 289 289 289 288 288 286 285 287 287 286 286 286 284 285 287 284 284 284 283
290 290 290 289 291 291 293 296 298 298 299 300 301 303 305 304 303 302 301 301 302 301 300 299 299 300 301 301 300 299 297 295 294 292 292 292 288 291 291 290 289 289 289 290 289 288 287 288 288 285 286 287 286 285 285 283 284 286 284 284 285 284
291 289 289 290 289 290 290 294 299 299 299 299 300 303 302 303 302 301 302 302 301 300 299 298 298 298 298 297 296 295 294 293 291 291 292 290 288 288 290 289 289 289 289 288 287 288 287 287 286 285 286 286 286 286 285 285 285 285 285 284 284 283
289 288 289 289 289 289 290 294 296 299 299 300 300 300 300 300 300 301 302 301 299 297 296 296 295 295 295 295 293 292 291 290 289 289 290 289 288 288 287 288 288 288 288 287 287 287 287 286 286 285 286 286 286 286 286 285 285 285 284 284 283 283
288 290 289 288 287 287 288 290 294 296 297 297 299 298 297 298 298 299 298 297 296 295 295 294 294 294 293 292 291 290 289 288 288 289 289 288 288 287 287 286 287 287 287 288 287 287 286 286 286 286 286 285 285 285 285 285 284 284 283 283 283 283
289 288 288 287 286 288 288 287 289 291 293 296 296 296 295 295 296 297 296 296 295 293 293 292 292 292 291 290 289 288 288 288 288 288 287 288 288 287 287 287 286 287 286 286 286 286 286 285 285 285 285 285 285 285 284 283 283 283 283 282 282 282
289 289 287 289 288 288 289 289 289 289 291 292 292 294 295 293 294 294 295 294 294 292 291 291 291 290 289 288 288 287 287 287 287 287 287 287 287 287 286 286 286 285 286 285 285 285 285 285 285 284 284 284 284 284 283 283 282 282 282 281 282 281
289 288 288 288 289 288 288 288 289 290 290 291 291 291 292 292 293 293 293 293 292 291 290 289 288 288 288 288 287 287 287 287 286 287 286 286 286 286 286 285 285 284 285 285 284 284 284 284 284 284 284 284 284 283 283 283 282 282 281 281 281 281
291 290 289 289 288 288 288 288 287 287 286 286 289 291 291 291 292 292 292 291 291 289 288 287 287 287 287 287 287 286 286 286 285 285 285 285 285 285 284 284 285 284 284 284 284 284 284 284 285 285 285 284 283 283 283 282 282 282 282 281 281 281
290 289 289 288 289 289 288 288 288 288 288 288 287 289 289 289 290 290 290 290 288 286 286 286 286 286 286 286 286 286 285 285 284 284 284 284 284 283 283 283 283 284 283 283 283 283 283 284 285 287 289 288 285 284 283 283 282 282 281 281 281 280
290 289 289 289 289 289 289 289 288 287 288 288 288 288 287 288 288 288 288 288 286 286 286 286 286 286 286 286 285 284 284 284 284 284 283 283 283 283 283 283 283 282 282 282 282 282 283 284 286 289 290 290 289 285 283 283 282 282 281 280 279 279
290 290 290 290 290 289 289 289 288 288 288 288 288 287 287 287 288 288 288 287 286 286 286 286 285 285 285 284 284 284 284 283 283 283 283 282 282 282 282 282 282 282 282 282 281 281 282 284 288 289 289 289 289 286 282 282 282 281 280 279 279 278
292 292 292 291 290 290 290 290 289 289 289 288 288 287 287 287 288 287 287 286 285 285 285 285 285 285 284 284 283 283 283 283 283 282 282 282 282 282 282 281 281 281 281 281 280 280 281 282 288 288 288 288 288 286 283 281 281 280 279 278 278 278
293 293 293 292 292 291 290 289 290 289 288 288 287 287 287 287 287 287 286 285 285 285 285 285 285 284 284 283 283 282 282 282 282 282 282 281 281 281 281 281 280 280 280 280 280 280 280 282 286 287 287 287 286 285 283 280 280 279 278 278 277 277
293 292 290 291 291 289 288 288 288 287 287 287 286 286 287 287 286 286 285 285 285 285 284 284 284 284 283 282 282 282 282 282 281 281 281 281 281 281 281 280 280 279 279 279 279 279 280 282 286 286 287 287 285 284 282 279 279 278 278 278 278 278
293 293 293 289 289 289 289 289 287 287 287 285 286 286 286 286 286 285 285 285 284 284 284 284 283 283 282 282 281 281 281 281 281 281 280 280 280 279 279 279 279 279 278 278 279 278 278 281 285 285 285 285 284 283 280 279 278 278 278 278 279 279
290 290 289 288 289 288 288 287 287 287 286 285 285 285 285 285 285 284 284 284 284 284 284 284 283 282 282 281 281 281 281 281 280 280 279 279 279 279 279 278 278 278 278 277 278 277 277 278 282 284 284 284 283 281 278 278 277 278 278 278 279 279
288 288 290 288 288 288 288 287 287 286 285 285 285 285 284 284 284 284 284 284 284 283 283 283 283 282 281 281 281 281 281 280 279 279 279 279 279 278 278 277 277 277 278 277 277 277 277 277 280 283 283 284 283 280 278 277 277 277 278 278 279 279
289 288 288 288 288 288 287 287 287 286 286 285 285 285 284 284 285 284 284 284 283 283 283 282 282 282 281 281 281 281 280 279 279 278 278 278 278 278 278 278 277 277 277 277 277 278 276 275 278 282 283 283 282 280 278 277 276 277 278 277 277 278
286 285 287 288 289 287 287 287 287 287 286 285 285 284 285 285 285 285 284 283 282 282 281 281 281 281 281 280 280 279 279 278 277 277 277 277 277 277 277 277 277 276 276 276 275 275 275 275 276 279 282 282 282 281 279 278 276 277 277 277 277 276
288 289 288 289 288 287 287 287 287 286 286 285 284 284 286 286 285 283 283 282 281 281 280 280 280 280 279 279 279 278 277 276 276 276 276 275 275 275 275 275 275 274 274 275 274 275 275 275 275 277 281 281 281 281 280 277 278 278 277 276 276 277
284 285 285 284 286 286 286 286 286 286 285 284 284 286 285 284 283 282 281 281 280 280 279 279 278 278 278 277 277 276 275 274 274 275 274 274 274 274 273 273 274 274 274 274 274 274 274 275 276 276 278 280 280 281 281 278 278 279 278 276 276 276
284 284 283 283 284 285 286 286 286 286 285 284 285 284 282 282 281 280 280 279 278 277 277 276 276 276 276 275 275 274 273 273 272 272 273 273 273 273 273 273 273 273 273 273 273 273 273 274 274 276 276 278 279 280 280 280 279 280 278 277 275 276
282 282 281 282 284 284 285 286 285 285 284 284 281 280 280 280 279 279 278 277 276 275 274 274 274 274 274 273 273 273 272 272 272 272 272 273 273 273 273 273 273 272 272 272 272 273 273 273 273 275 276 277 278 279 279 280 280 279 278 277 275 276
282 281 279 280 282 283 284 285 286 284 284 282 280 280 279 278 278 277 276 275 274 274 273 272 272 272 272 272 273 273 272 271 272 272 272 273 274 274 273 273 272 272 272 271 271 272 272 273 272 272 274 276 277 278 279 279 279 278 278 276 276 277
277 279 280 278 279 282 282 283 284 284 283 278 279 279 279 278 277 276 275 274 273 273 272 271 270 270 271 271 272 273 273 273 273 273 273 273 273 273 273 272 271 271 271 271 271 271 271 272 271 272 273 275 276 277 277 277 277 277 277 277 277 278
279 279 279 280 278 279 279 279 278 279 278 278 278 278 278 277 276 275 274 273 273 272 272 272 271 271 270 270 270 271 272 273 274 273 273 273 272 272 272 271 270 270 270 269 270 271 271 271 271 272 273 274 274 275 276 275 275 276 277 275 276 276
278 278 278 280 278 277 277 277 277 276 277 277 278 277 277 276 275 275 273 273 272 272 271 271 272 271 271 270 271 271 272 273 273 273 273 272 272 272 271 271 270 270 270 270 270 270 270 270 271 271 272 273 275 275 275 275 275 275 274 274 275 272
277 278 278 278 276 275 276 275 274 275 277 277 276 276 276 275 274 274 272 272 272 271 271 271 271 271 271 271 271 272 273 272 273 273 273 273 273 273 273 272 272 271 272 271 271 270 269 270 270 271 275 275 277 275 274 274 274 274 273 275 275 269
277 276 277 276 273 274 274 273 272 273 275 276 276 276 276 274 273 272 272 271 271 271 270 270 270 270 270 271 271 270 270 272 274 273 272 271 273 274 275 275 272 272 272 271 272 272 270 270 271 275 277 277 277 277 277 276 276 276 274 275 274 269
273 273 273 273 272 273 273 272 272 273 274 275 276 276 276 274 273 272 272 271 271 271 271 270 270 270 270 271 271 271 270 271 273 275 274 274 275 276 276 276 276 276 275 272 270 273 274 275 276 277 277 277 277 277 276 276 276 275 275 274 266 262
272 273 274 272 272 272 272 271 271 272 273 274 275 275 275 274 274 273 272 272 272 272 271 271 271 270 270 270 270 271 271 271 271 272 275 276 276 277 277 277 277 276 276 275 273 272 273 276 277 277 276 276 276 276 275 275 275 274 273 272 270 261
274 273 272 271 271 271 270 271 270 270 271 273 274 275 274 274 274 274 273 272 271 271 271 270 270 270 270 269 270 271 272 272 271 270 270 274 277 278 278 278 277 277 277 276 276 276 274 275 276 276 276 276 275 275 274 275 274 273 272 270 262 258
272 272 271 271 271 271 270 270 269 269 271 271 273 274 274 274 273 273 273 272 271 271 270 270 270 269 270 270 270 271 272 272 272 272 271 271 272 273 275 276 277 276 277 277 276 276 275 275 275 275 275 275 275 274 274 273 271 272 271 266 259 258
270 270 270 271 269 269 268 269 268 268 268 269 271 272 272 272 272 271 270 269 269 270 270 270 270 270 270 270 270 271 271 271 271 271 271 271 270 269 268 269 271 274 276 275 275 275 275 275 275 275 274 274 274 273 272 271 264 261 259 259 258 259
269 269 269 269 268 268 267 269 267 267 266 267 269 270 271 271 271 270 270 269 269 269 269 269 269 270 269 269 269 270 270 270 270 270 270 270 270 269 267 266 267 267 273 274 273 274 274 275 274 274 274 273 273 272 270 259 257 257 257 257 257 258
Wind_Speed
3 3 4 4 4 4 4 3 3 4 4 4 5 6 6 7 6 5 5 6 7 7 8 9 7 6 8 7 8 8 9 8 7 7 7 6 6 7 7 6 6 6 6 6 6 5 5 5 5 5 5 6 6 4 5 3 4 5 5 3 5 4
3 3 3 4 3 3 3 2 2 3 3 3 3 2 3 4 5 6 7 5 6 6 5 5 7 8 9 9 9 8 8 8 8 8 7 7 6 6 6 7 7 7 7 5 6 6 5 6 4 5 6 6 5 4 5 3 5 6 6 5 5 4
3 2 2 1 0 0 1 2 3 3 2 3 4 7 6 5 5 5 6 6 6 8 8 8 8 8 8 9 8 9 8 7 8 7 7 6 6 7 7 7 7 6 7 6 6 6 6 6 5 4 5 6 6 4 5 5 6 7 5 5 6 5
3 1 0 0 1 1 2 2 3 3 3 4 4 5 6 7 6 6 6 5 7 8 8 8 6 8 8 9 8 9 8 7 7 8 7 7 5 6 8 7 6 6 6 7 6 6 6 5 6 4 5 6 6 5 4 6 6 6 5 5 6 6
2 2 2 2 2 2 2 3 4 5 4 4 5 6 5 6 6 6 6 7 7 7 7 8 7 7 8 9 7 8 8 7 6 6 8 7 6 5 7 7 7 7 7 7 6 6 6 6 5 4 5 5 6 6 5 5 6 6 6 7 5 4
1 2 3 3 2 3 4 4 3 4 5 5 5 6 6 5 5 6 6 6 7 7 7 7 7 8 8 9 7 9 7 7 6 5 8 7 6 7 5 6 7 7 7 8 6 6 6 6 5 5 5 5 5 6 6 6 6 6 6 5 3 2
4 4 4 4 4 3 3 4 4 4 4 4 5 4 4 5 4 6 6 8 8 6 8 7 7 8 7 8 7 8 7 7 7 6 8 8 7 7 7 6 6 7 7 8 7 6 6 5 5 6 6 5 5 6 6 6 6 5 4 3 2 2
4 3 4 4 4 4 4 4 4 4 3 4 2 6 4 5 5 6 7 7 8 7 7 7 6 8 8 8 8 8 8 8 7 8 7 8 9 7 6 8 6 6 7 6 6 6 6 5 5 6 6 5 5 6 6 5 5 4 3 3 3 3
6 6 5 5 5 5 5 5 5 4 4 3 3 4 6 5 5 5 7 7 8 8 7 7 7 8 8 8 8 8 8 8 8 9 9 7 9 9 8 6 7 5 7 7 7 7 7 6 6 6 5 5 5 5 5 4 4 3 3 3 3 3
5 7 7 6 7 5 5 4 4 5 6 6 5 4 5 5 6 6 7 7 7 7 7 6 7 7 8 7 8 8 8 8 8 8 7 7 8 8 8 9 9 7 7 7 7 6 7 7 6 5 5 5 5 5 4 4 3 3 3 3 3 3
8 8 8 8 5 7 6 5 4 3 3 4 5 6 6 6 7 7 7 7 8 7 7 6 6 6 7 8 8 8 8 7 7 7 7 6 6 6 7 7 9 9 9 7 7 7 6 7 6 4 4 5 4 4 4 3 3 4 4 3 3 2
7 8 8 7 9 8 7 6 6 5 6 6 5 6 5 6 6 7 7 7 7 6 6 7 6 6 7 8 8 8 8 7 7 7 7 7 7 7 7 7 7 8 9 9 7 6 6 6 4 7 9 7 5 4 4 4 4 4 3 3 3 3
8 7 9 11 11 11 10 9 8 7 7 7 8 7 6 6 7 6 7 7 6 7 7 7 7 7 8 7 8 7 8 8 8 8 8 7 7 8 7 8 9 8 7 8 8 7 6 5 5 10 10 11 9 5 5 5 4 3 3 3 3 3
10 12 13 13 12 11 11 10 10 9 10 9 9 8 7 8 8 9 8 8 8 8 9 8 9 9 8 8 9 9 8 8 8 8 9 9 9 7 7 8 8 8 7 7 7 7 6 5 8 11 11 10 11 9 6 5 4 3 2 2 2 2
13 15 14 10 11 13 13 10 10 12 12 12 10 9 10 10 9 9 9 8 9 9 9 9 10 10 10 10 9 9 8 9 9 9 9 9 8 8 9 8 8 8 7 8 8 7 6 5 9 11 11 11 12 12 7 5 3 3 3 2 2 2
9 11 13 12 12 11 7 9 12 9 7 8 8 10 10 10 9 9 9 10 10 10 10 10 10 11 10 10 9 9 9 9 10 8 7 8 7 8 8 7 9 7 7 7 8 7 6 5 8 11 11 11 12 11 8 4 4 3 2 1 1 1
11 9 7 12 11 7 8 8 5 5 6 7 8 7 9 8 9 8 9 10 10 10 10 10 10 10 10 9 9 9 9 9 8 8 7 7 8 9 9 9 8 7 7 7 7 7 7 5 10 11 11 11 12 11 7 4 3 2 1 1 1 1
15 14 12 2 5 7 8 8 7 8 7 5 6 6 6 7 7 8 7 9 9 9 9 10 10 9 9 9 9 9 9 8 9 9 7 6 6 5 6 5 6 8 7 6 7 8 8 6 11 11 11 11 11 11 5 3 2 1 1 0 1 1
5 5 3 6 7 8 9 8 8 8 8 8 7 8 7 6 7 7 8 8 9 9 9 10 11 11 11 10 10 10 9 10 8 7 6 8 7 8 7 7 5 5 7 7 6 8 8 6 8 10 10 10 12 7 3 2 1 1 2 1 1 0
4 5 7 7 9 9 8 9 10 10 10 10 9 10 10 9 10 10 10 11 11 11 10 10 11 12 11 11 11 11 9 7 6 7 7 10 10 8 7 7 7 5 5 7 7 7 8 6 6 10 10 9 11 7 3 2 2 1 2 2 2 2
6 6 6 8 10 10 10 11 12 12 12 11 11 11 12 13 12 13 14 12 10 9 9 9 8 9 10 11 10 9 10 9 9 6 5 5 7 8 7 6 8 7 6 6 7 9 8 6 5 9 9 9 9 6 2 2 1 2 3 2 2 3
5 4 7 11 12 10 12 12 12 12 12 11 10 11 13 14 14 11 8 8 8 8 7 7 8 8 9 10 8 7 7 6 7 7 7 6 6 7 6 6 7 8 7 6 6 6 5 6 4 5 9 7 6 7 4 2 2 2 3 2 1 1
7 10 12 9 8 10 11 12 12 12 11 11 11 15 16 12 9 9 10 9 10 9 9 8 9 10 8 7 9 8 7 6 7 7 7 8 6 7 7 7 7 8 7 6 5 5 5 4 4 3 7 7 6 6 5 2 2 2 2 1 1 2
4 2 1 2 7 9 10 11 12 10 10 11 15 17 8 7 9 8 9 10 10 9 8 8 7 7 8 8 9 10 8 5 6 7 8 7 7 8 8 6 6 7 7 5 4 4 4 4 5 3 5 6 6 5 5 2 1 1 2 1 1 2
5 5 4 4 7 8 9 10 11 10 10 14 13 5 6 7 7 8 7 7 7 6 6 6 7 7 6 7 7 9 9 7 7 6 7 8 8 9 9 7 7 7 6 5 4 3 2 2 1 5 3 5 5 5 3 3 2 4 1 0 1 2
3 4 4 5 6 8 9 12 11 9 10 12 5 7 7 7 7 7 7 7 7 7 6 6 6 6 6 7 8 8 9 9 7 7 7 7 8 8 8 6 6 6 6 5 5 3 2 1 1 2 5 4 4 3 2 2 3 3 1 0 1 2
5 5 4 4 7 7 9 9 12 11 13 7 8 9 10 10 10 10 9 9 8 8 7 7 7 7 7 7 9 10 9 9 9 9 5 7 6 7 8 7 6 7 6 5 4 4 4 2 2 1 1 3 2 1 1 2 2 1 2 1 3 4
3 5 5 4 5 6 6 7 8 12 8 6 7 9 10 11 12 11 11 10 9 10 9 10 7 7 7 7 6 7 8 11 10 9 8 6 6 7 8 8 7 7 6 4 4 5 4 3 2 2 1 2 2 2 1 1 1 2 3 2 3 4
5 6 6 7 5 6 5 6 5 5 6 9 8 9 10 11 11 11 10 11 10 9 10 11 10 9 7 6 5 5 6 6 7 8 9 7 8 7 7 7 9 9 5 4 5 4 4 3 3 3 3 3 3 3 2 1 2 3 3 3 4 2
5 6 6 7 5 5 5 5 5 6 8 8 9 9 11 11 11 12 11 11 9 9 9 9 10 11 9 8 8 8 7 6 6 9 11 11 11 10 9 8 9 10 9 9 6 5 4 4 4 4 4 4 4 3 3 3 4 4 4 4 2 4
6 6 6 6 4 5 5 5 4 6 8 9 9 10 12 11 9 8 8 8 8 8 7 7 8 8 9 8 6 4 4 8 8 7 5 1 2 5 10 11 8 7 7 7 9 9 6 5 6 6 6 5 6 5 4 4 5 4 3 2 5 4
6 5 6 4 4 4 5 5 4 5 6 8 9 10 12 11 10 8 9 8 8 8 8 7 8 7 8 9 9 8 4 3 3 2 6 6 5 5 4 6 6 8 8 7 5 6 5 8 6 7 9 8 8 7 7 6 5 4 3 3 7 6
3 2 3 3 3 4 5 5 5 6 6 8 9 10 11 11 10 9 9 10 10 11 10 9 9 8 8 8 9 8 9 6 4 6 6 6 7 8 10 9 7 12 10 7 6 6 6 6 9 9 8 8 8 8 7 6 5 4 4 5 6 3
3 5 6 4 4 4 4 5 5 6 6 7 8 9 10 11 11 11 11 11 9 10 10 9 9 9 9 8 9 10 9 9 8 5 6 9 8 9 10 10 12 13 12 11 8 7 6 8 10 10 9 9 9 7 7 6 6 5 5 6 7 5
6 3 2 4 4 4 4 5 5 4 5 6 7 9 10 11 11 11 10 10 10 10 10 9 9 10 10 12 12 10 9 11 11 11 9 5 9 11 12 12 12 13 12 12 12 11 7 8 10 10 11 10 9 7 7 7 7 6 6 7 6 5
3 4 4 4 5 5 4 4 4 5 6 6 8 8 10 11 11 9 9 10 11 11 10 10 10 11 12 12 13 12 11 11 11 12 12 11 8 8 8 10 12 12 12 12 13 12 11 11 10 11 10 10 9 8 8 8 5 7 7 7 5 3
4 4 4 4 3 3 4 5 5 4 4 5 5 6 7 7 7 6 7 10 9 9 10 9 9 10 10 10 11 10 10 10 8 9 12 13 15 14 12 10 8 11 13 9 9 11 12 11 11 11 11 11 9 9 10 8 5 3 3 4 2 2
3 2 1 2 2 3 4 7 4 4 4 4 5 6 6 7 7 7 6 7 9 8 8 8 8 9 10 11 11 9 7 6 8 9 9 7 7 8 9 7 5 4 6 11 9 13 12 13 13 12 11 10 10 10 10 5 3 4 3 3 2 1
Wind_Direction
248 227 222 227 230 236 237 252 219 204 203 205 198 196 193 182 177 168 167 167 164 165 164 159 151 145 139 138 139 141 138 142 143 139 134 125 126 124 125 119 117 113 106 112 111 102 98 92 99 104 98 103 103 90 92 81 97 94 82 60 68 54
242 234 230 234 239 243 250 225 213 220 203 177 179 147 141 147 153 154 153 154 142 134 125 128 137 140 142 144 143 142 141 145 139 134 133 138 132 124 125 126 124 122 119 114 113 105 103 99 96 103 105 95 99 113 97 88 91 84 77 62 57 65
254 267 290 310 343 59 121 155 176 176 155 165 167 156 155 157 157 151 148 141 137 137 139 139 138 135 136 135 138 134 137 136 136 136 134 124 127 129 126 122 125 124 123 119 115 116 117 112 105 106 111 105 103 89 101 82 77 81 63 68 49 52
246 269 24 43 83 103 140 139 140 158 168 168 163 153 164 158 159 150 143 142 142 139 136 135 133 135 135 132 133 130 133 134 132 132 127 124 132 129 119 121 125 123 122 117 118 116 115 112 116 124 115 115 106 93 85 102 85 78 67 61 45 27
208 198 184 175 184 189 179 168 171 172 167 163 170 161 170 164 154 147 142 139 136 133 132 132 134 132 131 126 128 128 129 126 125 132 124 122 119 101 123 130 128 125 121 116 120 121 117 118 117 115 108 106 106 100 81 77 77 71 60 49 39 25
164 156 176 184 185 185 192 190 186 178 174 174 164 166 158 148 142 138 133 127 123 129 128 125 126 126 128 125 127 125 124 124 120 119 116 116 115 121 118 124 128 124 124 124 123 121 120 112 106 96 88 95 96 90 85 73 66 63 63 65 44 24
195 205 204 199 209 212 203 191 190 185 185 173 168 153 149 132 132 131 127 129 126 128 127 127 131 129 126 123 125 125 124 123 122 119 118 121 123 127 127 120 123 124 128 127 125 118 108 108 105 97 87 78 80 85 80 70 67 65 69 73 64 26
215 217 218 217 215 205 201 203 197 190 179 178 152 144 131 131 129 135 133 135 133 134 134 135 134 134 132 131 129 132 131 130 127 123 124 135 133 132 132 132 129 126 119 110 109 106 103 95 88 87 88 82 76 73 73 76 76 81 66 54 38 28
221 217 218 216 211 210 206 194 189 183 169 154 129 146 140 138 136 139 136 140 138 140 145 144 141 136 137 137 135 133 132 131 132 135 143 145 140 140 135 126 117 111 113 113 108 103 102 94 86 85 84 80 74 79 84 78 78 69 64 55 42 28
218 215 214 212 213 210 213 207 195 181 174 165 149 139 141 140 141 142 139 141 143 144 143 138 135 137 136 135 136 137 134 135 139 142 138 137 137 136 135 133 125 122 113 113 108 107 102 97 91 88 90 89 92 91 85 85 78 65 52 49 34 28
216 215 213 212 205 208 208 199 191 170 156 153 156 153 161 155 150 151 151 147 149 149 141 137 138 136 135 138 136 133 135 136 134 131 130 128 127 123 125 127 126 121 111 101 102 101 92 90 92 99 102 97 90 89 84 80 71 62 50 41 32 17
217 216 210 209 207 203 199 194 192 185 174 171 170 166 164 153 157 150 151 152 149 143 143 140 137 138 136 137 136 137 138 136 135 134 133 132 129 126 125 120 115 114 118 116 106 98 93 90 89 95 98 98 102 92 91 79 70 63 57 46 27 3
221 215 212 213 205 202 196 193 185 178 179 177 174 173 164 157 152 155 155 154 150 149 146 144 147 146 147 143 137 141 141 141 141 138 135 133 133 130 129 123 117 116 117 117 116 105 98 94 91 87 82 82 87 92 83 77 65 63 52 45 35 352
218 216 217 213 207 200 196 191 184 176 188 179 178 170 160 162 164 162 166 158 154 156 156 155 153 151 149 148 152 150 148 144 143 143 142 139 135 133 126 118 119 119 120 113 107 103 103 97 87 84 81 81 88 91 84 78 71 62 52 43 18 345
218 217 220 214 207 205 205 184 175 192 185 179 176 157 168 172 169 165 162 160 159 164 165 161 159 156 157 161 155 151 150 151 148 148 148 147 143 132 125 127 121 119 117 114 112 108 101 91 86 88 87 89 88 81 77 72 69 57 46 21 0 331
227 224 219 215 214 210 188 186 193 191 174 166 160 168 171 166 170 167 166 164 169 168 167 165 163 163 162 157 155 155 157 156 156 152 144 136 135 129 124 121 117 118 115 117 116 111 102 90 87 90 90 90 86 78 75 67 58 54 43 16 320 308
227 231 223 220 207 180 166 189 181 148 154 164 168 173 167 173 166 171 170 171 172 170 167 166 166 164 161 158 158 158 159 155 146 145 148 144 142 140 137 135 125 119 119 121 119 113 101 87 86 88 88 90 86 78 74 61 60 63 46 332 294 282
220 217 224 172 142 180 181 179 159 158 165 152 166 169 177 172 173 172 168 175 176 174 171 166 164 161 159 159 159 159 157 154 154 148 145 128 114 105 110 102 111 123 123 124 120 112 98 81 82 87 88 90 89 84 74 86 81 134 144 275 204 311
241 229 160 164 175 166 183 163 159 157 151 162 170 167 171 171 179 179 177 179 178 178 175 171 166 165 165 164 162 162 159 155 148 142 144 131 133 131 125 127 119 124 122 117 115 109 100 83 77 90 91 92 98 89 90 115 134 146 148 116 72 272
196 180 172 168 180 181 164 163 160 158 162 172 170 171 177 178 187 183 182 185 182 179 176 175 171 168 167 167 168 162 157 149 142 152 159 146 145 136 136 131 117 109 108 111 107 105 106 94 76 93 94 98 105 109 115 141 151 170 152 106 40 18
187 176 164 166 180 185 165 160 162 163 176 177 179 181 182 190 189 186 187 184 176 174 174 171 169 169 167 168 166 161 157 159 155 147 135 130 124 126 129 127 118 112 96 95 100 96 96 98 76 92 101 102 109 114 131 138 149 126 79 54 29 357
121 148 173 188 196 166 164 161 168 177 177 183 173 183 194 198 195 183 170 163 164 163 161 164 166 168 169 165 151 148 148 135 132 140 131 123 123 126 123 118 116 113 105 98 93 92 96 99 83 89 107 108 101 110 125 143 129 89 61 26 356 320
182 188 196 198 169 163 166 165 167 183 183 175 179 198 203 190 169 165 167 160 159 163 166 164 169 167 164 158 152 142 135 141 140 133 131 129 123 118 117 117 116 109 104 97 92 92 92 92 89 90 114 110 104 94 101 119 69 73 68 341 301 340
213 211 193 158 160 164 165 168 178 180 177 178 200 207 176 156 164 158 157 163 165 162 162 162 158 157 153 147 144 141 135 120 121 129 131 130 131 128 122 123 118 114 108 98 91 95 94 88 92 103 110 108 100 92 86 116 71 44 107 271 345 333
194 194 177 155 159 163 170 171 180 184 181 199 207 157 142 149 145 147 147 146 150 154 152 150 151 149 145 144 141 135 131 130 127 129 132 134 132 131 131 131 131 125 121 116 114 106 93 100 79 124 109 106 107 93 79 68 61 28 32 199 280 306
172 165 157 159 163 166 169 175 179 184 192 208 132 131 127 131 133 132 136 141 142 138 140 141 137 132 136 140 138 134 136 139 136 135 143 144 141 141 137 141 139 138 140 138 135 130 129 146 200 123 117 116 103 85 71 52 43 24 50 33 218 273
176 162 160 172 170 175 177 182 182 184 199 185 139 149 149 143 142 144 147 149 149 148 146 139 144 148 147 153 151 147 146 141 147 140 151 144 146 148 149 157 160 160 153 140 145 151 162 185 171 171 142 145 138 95 66 47 36 355 313 224 235 244
145 157 171 188 186 180 182 188 184 191 190 140 152 147 146 147 148 154 157 155 156 156 152 147 148 150 153 154 161 159 157 155 157 152 153 155 153 155 153 158 159 146 140 147 149 162 171 177 151 178 230 237 215 219 159 67 274 266 280 277 264 279
168 183 183 189 200 185 183 184 189 170 139 157 149 149 148 152 156 155 159 162 160 157 160 160 159 155 153 151 143 139 150 157 151 151 155 161 159 159 157 159 160 147 158 161 161 158 163 165 174 188 219 212 197 219 173 193 231 245 239 252 247 75
191 193 193 200 195 183 176 178 172 151 149 150 154 149 150 156 164 165 168 166 163 166 168 166 160 157 156 162 161 157 160 172 172 166 170 170 169 160 166 159 169 180 170 163 163 159 158 178 193 202 200 216 179 186 185 200 218 223 199 231 144 106
198 200 195 202 178 172 173 177 160 155 155 154 152 154 155 162 162 158 157 159 160 166 169 165 165 163 158 156 161 163 164 174 177 175 156 99 140 178 166 171 181 184 182 170 166 162 167 184 199 209 195 202 191 188 194 209 218 202 210 212 124 113
207 198 201 193 167 171 173 169 158 163 158 153 157 159 161 159 155 155 166 166 170 169 166 168 167 166 165 165 164 154 122 71 113 130 162 155 174 178 195 170 178 179 166 165 178 176 166 181 177 191 195 196 201 202 197 198 187 171 157 140 114 123
224 212 208 191 161 179 176 170 172 168 168 164 164 166 164 157 161 168 170 174 184 181 177 172 171 174 171 171 167 160 149 139 147 155 157 162 160 154 151 163 157 158 161 160 157 175 172 155 169 185 190 199 202 197 189 172 162 147 132 132 108 60
225 211 210 182 186 188 187 178 186 179 172 170 168 169 165 171 170 178 184 184 182 178 183 181 176 170 170 171 168 164 159 156 140 139 163 166 167 166 170 170 163 164 168 174 170 168 174 179 182 181 192 197 200 190 171 159 143 129 118 117 111 94
219 215 183 174 186 190 190 191 196 184 177 177 176 173 173 181 183 183 183 183 181 181 180 178 179 181 177 169 171 178 172 165 165 154 149 169 181 185 181 173 171 172 175 176 180 180 172 168 175 185 188 194 191 177 166 154 139 121 114 92 69 109
207 202 192 189 191 192 190 204 201 195 194 185 184 184 187 188 192 190 182 183 182 179 184 187 187 184 186 185 180 176 176 180 177 170 158 151 154 166 174 180 182 181 181 183 182 179 181 184 182 183 188 188 181 171 164 148 127 106 91 104 124 112
193 200 200 186 181 182 198 218 215 201 197 194 189 189 192 193 190 185 184 179 180 190 192 191 189 190 184 181 186 185 183 183 180 167 167 170 173 175 175 172 177 186 184 181 174 175 178 181 181 185 190 186 176 171 163 139 106 84 33 54 89 121
189 203 173 153 158 190 212 234 211 183 188 190 190 194 197 195 191 188 188 186 187 192 198 195 196 191 188 188 192 191 184 175 173 180 186 182 172 160 152 147 161 143 178 164 160 179 183 181 181 182 183 179 177 170 152 124 166 141 151 140 150 155